Weather History for Hazen, ND

Change the Weather History Date:

Monday, May 12, 2014

  Actual Average (KN60) Record (KN60)
Temperature  
Mean Temperature 44 °F -  
Max Temperature 55 °F 61 °F 80 °F (2001)
Min Temperature 32 °F 37 °F 27 °F (2006)
Degree Days  
Heating Degree Days 22    
Moisture  
Dew Point 28 °F    
Average Humidity 60    
Maximum Humidity 93    
Minimum Humidity 31    
Precipitation  
Precipitation 0.00 in - - ()
Sea Level Pressure  
Sea Level Pressure 30.18 in    
Wind  
Wind Speed 11 mph (NNW)    
Max Wind Speed 29 mph    
Max Gust Speed 37 mph    
Visibility 10 miles    
Events      
Averages and records for this station are not official NWS values.
T = Trace of Precipitation, MM = Missing Value Source: NWS Daily Summary

Daily Weather History Graph

Daily Weather History Graph

Search for Another Location

Airport:

Trip Planner

Search our weather history database for the weather conditions in past years. The results will help you decide how hot, cold, wet, or windy it might be!

Date:

Astronomy

May. 12, 2014 Rise Set
Actual Time 6:13 AM CDT 9:12 PM CDT
Civil Twilight 5:37 AM CDT 9:48 PM CDT
Nautical Twilight 4:51 AM CDT 10:34 PM CDT
Astronomical Twilight 3:56 AM CDT 11:31 PM CDT
Moon 7:04 PM CDT (5/12) 5:04 AM CDT (5/12)
Length of Visible Light 16h 10m
Length of Day
14h 58m
Waxing Gibbous, 95% of the Moon is Illuminated
May 12
Waxing Gibbous
May 14
Full
May 21
Last Quarter
May 28
New
Jun 5
First Quarter

Hourly Weather History & Observations

Time (CDT) Temp. Windchill Dew Point Humidity Pressure Visibility Wind Dir Wind Speed Gust Speed Precip Events Conditions
12:15 AM 33.8 °F - 32.0 °F 93% 30.16 in 10.0 mi Calm Calm - N/A   Partly Cloudy
12:55 AM 35.6 °F 29.2 °F 32.0 °F 87% 30.17 in 10.0 mi North 8.1 mph - N/A   Mostly Cloudy
1:15 AM 35.6 °F 31.7 °F 30.2 °F 81% 30.17 in 10.0 mi North 4.6 mph - N/A   Mostly Cloudy
1:35 AM 33.8 °F 30.8 °F 32.0 °F 93% 30.17 in 10.0 mi NNW 3.5 mph - N/A   Mostly Cloudy
1:55 AM 33.8 °F 29.6 °F 32.0 °F 93% 30.17 in 10.0 mi North 4.6 mph - N/A   Mostly Cloudy
2:15 AM 35.6 °F 30.7 °F 32.0 °F 87% 30.18 in 10.0 mi NNW 5.8 mph - N/A   Scattered Clouds
2:35 AM 33.8 °F 29.6 °F 32.0 °F 93% 30.17 in 10.0 mi NNW 4.6 mph - N/A   Partly Cloudy
2:55 AM 33.8 °F 29.6 °F 32.0 °F 93% 30.17 in 10.0 mi WNW 4.6 mph - N/A   Partly Cloudy
3:15 AM 33.8 °F 29.6 °F 30.2 °F 87% 30.18 in 10.0 mi WSW 4.6 mph - N/A   Partly Cloudy
3:35 AM 32.0 °F 27.5 °F 28.4 °F 87% 30.17 in 10.0 mi WNW 4.6 mph - N/A   Partly Cloudy
3:55 AM 32.0 °F 27.5 °F 28.4 °F 87% 30.16 in 10.0 mi NW 4.6 mph - N/A   Scattered Clouds
4:15 AM 32.0 °F 24.2 °F 28.4 °F 87% 30.14 in 10.0 mi NW 9.2 mph - N/A   Mostly Cloudy
4:35 AM 32.0 °F 26.4 °F 28.4 °F 87% 30.16 in 10.0 mi NW 5.8 mph - N/A   Mostly Cloudy
4:55 AM 32.0 °F 25.6 °F 28.4 °F 87% 30.17 in 10.0 mi NW 6.9 mph - N/A   Overcast
5:15 AM 32.0 °F 23.6 °F 30.2 °F 93% 30.17 in 10.0 mi NW 10.4 mph - N/A   Mostly Cloudy
5:35 AM 32.0 °F 23.0 °F 28.4 °F 87% 30.17 in 10.0 mi NW 11.5 mph - N/A   Scattered Clouds
5:55 AM 32.0 °F 23.6 °F 28.4 °F 87% 30.17 in 10.0 mi NNW 10.4 mph - N/A   Scattered Clouds
6:15 AM 32.0 °F 23.6 °F 28.4 °F 87% 30.17 in 10.0 mi NW 10.4 mph - N/A   Partly Cloudy
6:35 AM 32.0 °F 24.8 °F 28.4 °F 87% 30.18 in 10.0 mi NW 8.1 mph - N/A   Clear
6:55 AM 33.8 °F 24.8 °F 28.4 °F 81% 30.17 in 10.0 mi NNW 12.7 mph 18.4 mph N/A   Clear
7:15 AM 35.6 °F 27.1 °F 28.4 °F 75% 30.20 in 10.0 mi NW 12.7 mph - N/A   Clear
7:35 AM 35.6 °F 27.5 °F 30.2 °F 81% 30.19 in 10.0 mi NNW 11.5 mph - N/A   Clear
7:55 AM 35.6 °F 26.6 °F 28.4 °F 75% 30.19 in 10.0 mi NNW 13.8 mph 20.7 mph N/A   Clear
8:15 AM 37.4 °F 28.9 °F 30.2 °F 75% 30.19 in 10.0 mi NNW 13.8 mph 19.6 mph N/A   Clear
8:35 AM 37.4 °F 29.3 °F 32.0 °F 81% 30.19 in 10.0 mi NNW 12.7 mph - N/A   Clear
9:15 AM 41.0 °F 32.5 °F 32.0 °F 70% 30.20 in 10.0 mi NNW 17.3 mph 26.5 mph N/A   Clear
9:35 AM 41.0 °F 31.4 °F 32.0 °F 70% 30.20 in 10.0 mi NNW 21.9 mph 25.3 mph N/A   Clear
9:55 AM 42.8 °F 33.8 °F 32.0 °F 66% 30.20 in 10.0 mi NNW 21.9 mph 26.5 mph N/A   Clear
10:15 AM 44.6 °F 35.9 °F 30.2 °F 57% 30.20 in 10.0 mi NNW 23.0 mph 31.1 mph N/A   Clear
10:35 AM 44.6 °F 35.9 °F 28.4 °F 53% 30.20 in 10.0 mi North 23.0 mph 31.1 mph N/A   Clear
10:55 AM 46.4 °F 38.1 °F 28.4 °F 50% 30.20 in 10.0 mi NNW 24.2 mph 32.2 mph N/A   Partly Cloudy
11:15 AM 46.4 °F 38.1 °F 26.6 °F 46% 30.20 in 10.0 mi North 24.2 mph 36.8 mph N/A   Scattered Clouds
11:35 AM 46.4 °F 37.7 °F 26.6 °F 46% 30.20 in 10.0 mi NNW 26.5 mph 32.2 mph N/A   Mostly Cloudy
11:55 AM 46.4 °F 38.5 °F 24.8 °F 43% 30.20 in 10.0 mi North 21.9 mph 32.2 mph N/A   Scattered Clouds
12:15 PM 46.4 °F 38.1 °F 26.6 °F 46% 30.20 in 10.0 mi NNW 24.2 mph 34.5 mph N/A   Partly Cloudy
12:35 PM 48.2 °F - 26.6 °F 43% 30.20 in 10.0 mi North 24.2 mph 34.5 mph N/A   Scattered Clouds
12:55 PM 48.2 °F - 26.6 °F 43% 30.20 in 10.0 mi North 23.0 mph 36.8 mph N/A   Scattered Clouds
1:15 PM 48.2 °F - 26.6 °F 43% 30.19 in 10.0 mi NNW 25.3 mph 36.8 mph N/A   Mostly Cloudy
1:35 PM 50.0 °F - 26.6 °F 40% 30.19 in 10.0 mi North 28.8 mph 36.8 mph N/A   Mostly Cloudy
3:15 PM 50.0 °F - 24.8 °F 37% 30.18 in 10.0 mi NNW 26.5 mph 32.2 mph N/A   Mostly Cloudy
3:35 PM 55.4 °F - 26.6 °F 33% 30.18 in 10.0 mi NNW 20.7 mph 33.4 mph N/A   Mostly Cloudy
3:55 PM 53.6 °F - 24.8 °F 33% 30.18 in 10.0 mi NNW 21.9 mph 36.8 mph N/A   Mostly Cloudy
4:15 PM 53.6 °F - 24.8 °F 33% 30.17 in 10.0 mi NNW 24.2 mph 33.4 mph N/A   Mostly Cloudy
4:35 PM 55.4 °F - 24.8 °F 31% 30.17 in 10.0 mi NNW 28.8 mph 35.7 mph N/A   Mostly Cloudy
4:55 PM 55.4 °F - 24.8 °F 31% 30.17 in 10.0 mi NNW 21.9 mph 34.5 mph N/A   Mostly Cloudy
5:15 PM 53.6 °F - 24.8 °F 33% 30.17 in 10.0 mi NNW 21.9 mph 32.2 mph N/A   Mostly Cloudy
5:35 PM 53.6 °F - 24.8 °F 33% 30.17 in 10.0 mi NNW 20.7 mph 33.4 mph N/A   Mostly Cloudy
5:55 PM 53.6 °F - 24.8 °F 33% 30.17 in 10.0 mi North 23.0 mph 27.6 mph N/A   Overcast
6:15 PM 51.8 °F - 24.8 °F 35% 30.17 in 10.0 mi North 18.4 mph 32.2 mph N/A   Overcast
6:35 PM 51.8 °F - 24.8 °F 35% 30.18 in 10.0 mi North 21.9 mph 26.5 mph N/A   Overcast
6:55 PM 51.8 °F - 24.8 °F 35% 30.17 in 10.0 mi North 18.4 mph 28.8 mph N/A   Overcast
7:15 PM 50.0 °F - 24.8 °F 37% 30.17 in 10.0 mi NNW 17.3 mph 25.3 mph N/A   Overcast
7:35 PM 50.0 °F - 24.8 °F 37% 30.18 in 10.0 mi NNW 18.4 mph 27.6 mph N/A   Overcast
7:55 PM 50.0 °F - 24.8 °F 37% 30.18 in 10.0 mi NNW 15.0 mph 25.3 mph N/A   Overcast
8:15 PM 50.0 °F - 24.8 °F 37% 30.18 in 10.0 mi North 16.1 mph 26.5 mph N/A   Overcast
8:35 PM 50.0 °F - 24.8 °F 37% 30.18 in 10.0 mi NNW 11.5 mph 23.0 mph N/A   Overcast
8:55 PM 48.2 °F - 24.8 °F 40% 30.18 in 10.0 mi NNW 12.7 mph - N/A   Overcast
9:15 PM 48.2 °F - 24.8 °F 40% 30.19 in 10.0 mi NNW 11.5 mph - N/A   Mostly Cloudy
9:35 PM 46.4 °F 41.5 °F 24.8 °F 43% 30.19 in 10.0 mi NNW 10.4 mph - N/A   Scattered Clouds
9:55 PM 44.6 °F 38.8 °F 24.8 °F 46% 30.20 in 10.0 mi NNW 11.5 mph - N/A   Clear
10:15 PM 42.8 °F 37.5 °F 26.6 °F 53% 30.20 in 10.0 mi NNW 9.2 mph - N/A   Clear
10:35 PM 41.0 °F 35.8 °F 26.6 °F 57% 30.20 in 10.0 mi NNW 8.1 mph - N/A   Clear
10:55 PM 41.0 °F 35.8 °F 26.6 °F 57% 30.20 in 10.0 mi NW 8.1 mph - N/A   Clear
11:15 PM 41.0 °F 35.2 °F 26.6 °F 57% 30.20 in 10.0 mi NW 9.2 mph - N/A   Clear
11:55 PM 33.8 °F 28.6 °F 26.6 °F 75% 30.20 in 10.0 mi West 5.8 mph - N/A   Clear